Malmstrom AFB, MT

4:36 AM MST on January 17, 2018 (GMT -0700)
Malmstrom AFB

Weather History for KGFA - March, 2014

Change the Weather History Date:

Wednesday, March 19, 2014

  Actual Average (KGTF) Record (KGTF)
Temperature  
Mean Temperature 36 °F -  
Max Temperature 46 °F 47 °F 71 °F (1928)
Min Temperature 25 °F 26 °F -10 °F (1906)
Degree Days  
Heating Degree Days 30    
Moisture  
Dew Point 17 °F    
Average Humidity 48    
Maximum Humidity 75    
Minimum Humidity 25    
Precipitation  
Precipitation 0.00 in - - ()
Sea Level Pressure  
Sea Level Pressure 30.03 in    
Wind  
Wind Speed 15 mph (SSW)    
Max Wind Speed 25 mph    
Max Gust Speed 34 mph    
Visibility 10 miles    
Events      
Averages and records for this station are not official NWS values.
T = Trace of Precipitation, MM = Missing Value Source: NWS Daily Summary

Daily Weather History Graph

Daily Weather History Graph

Search for Another Location

Airport or City:

Trip Planner

Search our weather history database for the weather conditions in past years. The results will help you decide how hot, cold, wet, or windy it might be!

Date:

Astronomy

Mar. 19, 2014 Rise Set
Actual Time 7:29 AM MDT 7:36 PM MDT
Civil Twilight 6:58 AM MDT 8:06 PM MDT
Nautical Twilight 6:22 AM MDT 8:42 PM MDT
Astronomical Twilight 5:45 AM MDT 9:20 PM MDT
Moon 11:13 PM MDT (3/19) 8:44 AM MDT (3/19)
Length of Visible Light 13h 07m
Length of Day
12h 06m
Waning Gibbous, 91% of the Moon is Illuminated
Mar 19
Waning Gibbous
Mar 23
Last Quarter
Mar 30
New
Apr 7
First Quarter
Apr 15
Full

Hourly Weather History & Observations

Time (MDT) Temp. Windchill Dew Point Humidity Pressure Visibility Wind Dir Wind Speed Gust Speed Precip Events Conditions
12:56 AM 27.0 °F 16.7 °F 18.0 °F 69% 30.14 in 10.0 mi South 11.5 mph - N/A   Clear
1:56 AM 25.0 °F 14.8 °F 18.0 °F 75% 30.15 in 10.0 mi South 10.4 mph - N/A   Clear
2:56 AM 27.0 °F 15.6 °F 18.0 °F 69% 30.13 in 10.0 mi SSW 13.8 mph - N/A   Clear
3:56 AM 28.0 °F 17.0 °F 17.1 °F 63% 30.12 in 10.0 mi South 13.8 mph - N/A   Clear
4:56 AM 28.0 °F 16.5 °F 17.1 °F 63% 30.12 in 10.0 mi SSW 15.0 mph - N/A   Clear
5:56 AM 28.0 °F 17.0 °F 17.1 °F 63% 30.12 in 10.0 mi South 13.8 mph - N/A   Clear
6:56 AM 28.9 °F 19.2 °F 17.1 °F 61% 30.12 in 10.0 mi South 11.5 mph - N/A   Clear
7:56 AM 30.0 °F 19.5 °F 17.1 °F 59% 30.12 in 10.0 mi South 13.8 mph - N/A   Clear
8:56 AM 32.0 °F 21.6 °F 18.0 °F 56% 30.10 in 10.0 mi South 15.0 mph - N/A   Clear
9:56 AM 36.0 °F 26.3 °F 17.1 °F 46% 30.10 in 10.0 mi South 16.1 mph - N/A   Clear
10:56 AM 39.0 °F 29.3 °F 17.1 °F 41% 30.07 in 10.0 mi South 19.6 mph - N/A   Clear
11:56 AM 39.9 °F 30.8 °F 15.1 °F 36% 30.06 in 10.0 mi SSW 18.4 mph 25.3 mph N/A   Clear
12:56 PM 41.0 °F 30.7 °F 14.0 °F 33% 30.03 in 10.0 mi SSW 25.3 mph 32.2 mph N/A   Clear
1:56 PM 44.1 °F 35.7 °F 14.0 °F 30% 30.00 in 10.0 mi SW 20.7 mph 34.5 mph N/A   Clear
2:56 PM 45.0 °F 36.2 °F 12.9 °F 27% 29.97 in 10.0 mi SW 24.2 mph 31.1 mph N/A   Clear
3:56 PM 46.9 °F - 12.9 °F 25% 29.95 in 10.0 mi SW 21.9 mph 32.2 mph N/A   Clear
4:56 PM 45.0 °F 37.4 °F 15.1 °F 30% 29.95 in 10.0 mi SW 18.4 mph 31.1 mph N/A   Partly Cloudy
5:56 PM 46.9 °F - 15.1 °F 28% 29.93 in 10.0 mi SW 20.7 mph 28.8 mph N/A   Mostly Cloudy
6:56 PM 46.0 °F 39.0 °F 15.1 °F 29% 29.94 in 10.0 mi WSW 17.3 mph 25.3 mph N/A   Clear
7:56 PM 44.1 °F 36.5 °F 17.1 °F 34% 29.95 in 10.0 mi SW 17.3 mph 27.6 mph N/A   Mostly Cloudy
8:56 PM 41.0 °F 35.8 °F 18.0 °F 40% 29.95 in 10.0 mi SW 8.1 mph - N/A   Scattered Clouds
9:56 PM 37.0 °F 29.3 °F 19.0 °F 48% 29.94 in 10.0 mi SSW 11.5 mph - N/A   Clear
10:56 PM 32.0 °F 23.0 °F 19.9 °F 61% 29.94 in 10.0 mi South 11.5 mph - N/A   Clear
11:56 PM 35.1 °F 26.9 °F 21.9 °F 59% 29.90 in 10.0 mi SSW 11.5 mph - N/A   Clear